Total_Precipitation_Accumulation
0.42 0.38 0.43 0.50 0.52 0.61 0.77 0.96 1.23 1.12 0.91 0.75 0.70 0.66 0.69 0.74 0.69 0.66 0.67 0.73 0.76 0.76 0.84 0.88 0.91 0.97 1.03 1.13 1.33 1.46 1.54 1.55 1.48 1.47 1.48 1.51 1.50 1.35 1.29 1.22 1.21 1.23 1.37 1.52
0.29 0.26 0.33 0.45 0.55 0.69 0.76 0.82 0.84 0.76 0.73 0.56 0.52 0.47 0.48 0.54 0.56 0.59 0.59 0.60 0.63 0.65 0.70 0.78 0.81 0.89 0.90 1.00 1.17 1.27 1.31 1.37 1.47 1.48 1.40 1.36 1.36 1.33 1.22 1.13 1.11 1.09 1.16 1.29
0.34 0.25 0.40 0.64 0.65 0.71 0.73 0.68 0.60 0.58 0.52 0.39 0.36 0.33 0.34 0.40 0.45 0.54 0.55 0.52 0.53 0.53 0.59 0.68 0.78 0.82 0.89 1.00 1.13 1.17 1.22 1.26 1.32 1.35 1.29 1.26 1.19 1.16 1.12 1.06 1.10 1.07 1.13 1.24
0.45 0.39 0.72 0.88 0.64 0.57 0.64 0.56 0.42 0.39 0.37 0.35 0.31 0.27 0.24 0.24 0.27 0.32 0.37 0.40 0.48 0.49 0.48 0.53 0.63 0.78 0.95 1.00 1.02 1.04 1.10 1.14 1.11 1.13 1.14 1.17 1.05 1.04 1.03 1.04 1.08 1.10 1.15 1.22
0.63 0.63 0.74 0.76 0.52 0.49 0.58 0.59 0.36 0.30 0.29 0.27 0.27 0.25 0.21 0.19 0.20 0.21 0.24 0.31 0.37 0.41 0.42 0.44 0.48 0.55 0.65 0.75 0.82 0.84 0.93 0.97 0.99 0.98 1.01 1.05 1.01 1.11 1.12 1.07 1.09 1.10 1.09 1.10
0.71 0.83 0.90 0.60 0.29 0.27 0.44 0.69 0.34 0.24 0.24 0.23 0.24 0.27 0.24 0.21 0.21 0.19 0.18 0.20 0.26 0.30 0.32 0.32 0.35 0.40 0.49 0.57 0.67 0.74 0.82 0.87 0.93 0.94 0.98 1.06 1.21 1.31 1.31 1.24 1.13 1.06 1.02 0.98
0.76 0.99 0.89 0.51 0.26 0.29 0.57 0.73 0.38 0.24 0.24 0.27 0.27 0.25 0.22 0.22 0.22 0.21 0.18 0.17 0.21 0.23 0.25 0.27 0.29 0.32 0.40 0.47 0.49 0.55 0.63 0.74 0.88 0.99 1.03 1.17 1.34 1.37 1.30 1.23 1.10 1.00 0.97 0.96
0.93 1.16 1.14 0.58 0.37 0.47 0.49 0.34 0.27 0.22 0.21 0.23 0.24 0.24 0.27 0.27 0.24 0.24 0.24 0.22 0.21 0.22 0.22 0.26 0.30 0.32 0.37 0.45 0.46 0.53 0.58 0.63 0.73 0.89 1.01 1.17 1.33 1.31 1.28 1.26 1.15 1.03 1.01 1.00
1.06 1.07 0.79 0.49 0.39 0.34 0.29 0.29 0.22 0.21 0.22 0.22 0.22 0.23 0.26 0.27 0.25 0.24 0.25 0.26 0.25 0.23 0.22 0.24 0.29 0.35 0.38 0.42 0.45 0.48 0.52 0.53 0.59 0.69 0.83 1.01 1.15 1.18 1.19 1.20 1.15 1.08 1.02 0.99
0.62 0.49 0.36 0.33 0.30 0.24 0.19 0.19 0.16 0.16 0.18 0.23 0.27 0.29 0.28 0.27 0.28 0.29 0.27 0.25 0.23 0.23 0.24 0.26 0.29 0.33 0.39 0.45 0.46 0.47 0.48 0.52 0.54 0.57 0.61 0.71 0.82 0.94 1.03 1.04 1.02 1.01 1.01 0.99
0.48 0.35 0.27 0.28 0.26 0.21 0.16 0.15 0.14 0.15 0.16 0.18 0.24 0.27 0.26 0.29 0.28 0.28 0.28 0.30 0.28 0.27 0.28 0.28 0.30 0.31 0.37 0.41 0.45 0.48 0.50 0.55 0.58 0.61 0.63 0.65 0.67 0.73 0.83 0.85 0.93 1.00 0.99 0.99
0.47 0.33 0.28 0.26 0.21 0.19 0.17 0.15 0.16 0.17 0.19 0.20 0.23 0.27 0.31 0.30 0.28 0.25 0.28 0.31 0.32 0.33 0.34 0.33 0.34 0.35 0.37 0.38 0.42 0.45 0.47 0.48 0.49 0.53 0.60 0.62 0.64 0.68 0.77 0.80 0.87 0.87 0.88 0.88
0.25 0.25 0.24 0.22 0.19 0.18 0.15 0.13 0.14 0.15 0.16 0.18 0.20 0.26 0.27 0.27 0.26 0.26 0.30 0.30 0.32 0.34 0.34 0.34 0.35 0.37 0.41 0.40 0.42 0.46 0.48 0.47 0.47 0.47 0.54 0.60 0.62 0.67 0.71 0.71 0.71 0.71 0.74 0.80
0.16 0.21 0.27 0.24 0.21 0.19 0.15 0.13 0.14 0.15 0.15 0.15 0.17 0.22 0.24 0.25 0.25 0.26 0.27 0.29 0.30 0.31 0.31 0.33 0.34 0.35 0.39 0.43 0.48 0.51 0.53 0.56 0.56 0.55 0.58 0.60 0.66 0.71 0.70 0.70 0.67 0.59 0.59 0.65
0.15 0.17 0.21 0.20 0.18 0.15 0.13 0.13 0.15 0.16 0.16 0.18 0.18 0.19 0.24 0.28 0.30 0.32 0.32 0.29 0.26 0.27 0.29 0.33 0.36 0.36 0.37 0.41 0.46 0.50 0.53 0.56 0.59 0.62 0.62 0.63 0.67 0.74 0.76 0.72 0.66 0.61 0.57 0.59
0.14 0.14 0.16 0.18 0.17 0.15 0.13 0.13 0.15 0.16 0.16 0.18 0.20 0.18 0.20 0.24 0.29 0.35 0.39 0.37 0.34 0.32 0.34 0.38 0.38 0.36 0.38 0.43 0.47 0.48 0.50 0.59 0.61 0.62 0.66 0.69 0.69 0.70 0.70 0.72 0.69 0.65 0.61 0.60
0.19 0.18 0.18 0.19 0.16 0.14 0.13 0.14 0.16 0.17 0.17 0.18 0.21 0.20 0.18 0.19 0.21 0.27 0.32 0.36 0.37 0.37 0.35 0.36 0.40 0.42 0.44 0.46 0.51 0.53 0.54 0.57 0.62 0.60 0.60 0.65 0.66 0.66 0.66 0.66 0.65 0.61 0.59 0.60
0.20 0.19 0.17 0.18 0.17 0.16 0.15 0.17 0.18 0.17 0.16 0.19 0.22 0.22 0.22 0.23 0.23 0.25 0.30 0.35 0.36 0.36 0.33 0.34 0.40 0.44 0.45 0.48 0.51 0.56 0.59 0.58 0.55 0.55 0.58 0.61 0.64 0.63 0.63 0.66 0.65 0.62 0.58 0.58
0.18 0.17 0.14 0.15 0.16 0.19 0.20 0.20 0.19 0.18 0.18 0.19 0.22 0.26 0.28 0.29 0.27 0.27 0.29 0.37 0.40 0.40 0.34 0.31 0.39 0.38 0.40 0.46 0.53 0.52 0.55 0.58 0.60 0.61 0.62 0.66 0.69 0.67 0.66 0.65 0.67 0.66 0.66 0.63
0.22 0.19 0.17 0.17 0.19 0.21 0.21 0.20 0.19 0.19 0.19 0.20 0.24 0.27 0.30 0.31 0.30 0.30 0.33 0.40 0.44 0.43 0.36 0.37 0.36 0.36 0.40 0.45 0.55 0.50 0.51 0.49 0.54 0.60 0.64 0.70 0.71 0.72 0.72 0.69 0.70 0.70 0.68 0.67
0.28 0.27 0.24 0.23 0.23 0.22 0.22 0.22 0.21 0.21 0.22 0.23 0.26 0.29 0.31 0.32 0.32 0.33 0.38 0.45 0.41 0.35 0.35 0.39 0.35 0.36 0.41 0.51 0.58 0.52 0.50 0.50 0.54 0.59 0.61 0.64 0.68 0.73 0.81 0.81 0.78 0.74 0.70 0.68
0.29 0.30 0.27 0.24 0.23 0.24 0.24 0.22 0.22 0.23 0.24 0.25 0.27 0.27 0.30 0.33 0.32 0.30 0.33 0.39 0.40 0.44 0.40 0.36 0.35 0.42 0.50 0.52 0.47 0.50 0.52 0.52 0.53 0.57 0.60 0.61 0.66 0.72 0.78 0.82 0.81 0.77 0.75 0.75
0.27 0.27 0.27 0.26 0.26 0.24 0.23 0.23 0.24 0.26 0.27 0.28 0.30 0.33 0.39 0.43 0.41 0.41 0.42 0.38 0.39 0.45 0.41 0.38 0.45 0.55 0.58 0.47 0.44 0.47 0.51 0.56 0.59 0.62 0.66 0.69 0.71 0.73 0.78 0.81 0.86 0.84 0.81 0.81
0.29 0.27 0.26 0.27 0.26 0.26 0.27 0.28 0.28 0.29 0.32 0.35 0.36 0.40 0.47 0.53 0.52 0.48 0.48 0.50 0.49 0.47 0.41 0.45 0.53 0.58 0.57 0.48 0.49 0.52 0.56 0.62 0.67 0.69 0.72 0.75 0.75 0.78 0.83 0.85 0.88 0.89 0.88 0.87
0.38 0.35 0.34 0.36 0.38 0.37 0.37 0.35 0.33 0.32 0.34 0.38 0.40 0.39 0.44 0.50 0.54 0.55 0.55 0.53 0.53 0.53 0.48 0.52 0.56 0.58 0.52 0.50 0.55 0.57 0.61 0.67 0.74 0.76 0.74 0.76 0.77 0.77 0.81 0.86 0.89 0.91 0.92 0.92
0.35 0.34 0.33 0.36 0.39 0.39 0.39 0.38 0.40 0.41 0.42 0.45 0.46 0.45 0.46 0.47 0.50 0.52 0.56 0.58 0.58 0.60 0.54 0.50 0.48 0.50 0.50 0.53 0.56 0.58 0.60 0.63 0.65 0.67 0.69 0.73 0.75 0.77 0.80 0.84 0.87 0.91 0.95 0.98
0.32 0.30 0.29 0.32 0.36 0.37 0.38 0.41 0.47 0.52 0.54 0.58 0.61 0.60 0.56 0.55 0.56 0.56 0.57 0.59 0.65 0.65 0.61 0.60 0.58 0.56 0.58 0.60 0.61 0.62 0.64 0.64 0.63 0.65 0.68 0.71 0.76 0.82 0.86 0.87 0.90 0.93 0.97 1.00